Pinedale, WY

10:09 AM MDT on October 18, 2017 (GMT -0600)
Wenz

Weather History for KPNA - April, 2013

Change the Weather History Date:

Saturday, April 13, 2013

  Actual Average (KBPI) Record (KBPI)
Temperature  
Mean Temperature 33 °F -  
Max Temperature 42 °F 47 °F 70 °F (2017)
Min Temperature 24 °F 19 °F 5 °F (1980)
Degree Days  
Heating Degree Days 32    
Moisture  
Dew Point 23 °F    
Average Humidity 68    
Maximum Humidity 87    
Minimum Humidity 38    
Precipitation  
Precipitation 0.00 in - - ()
Sea Level Pressure  
Sea Level Pressure 29.64 in    
Wind  
Wind Speed 7 mph (West)    
Max Wind Speed 28 mph    
Max Gust Speed 40 mph    
Visibility 10 miles    
Events Rain , Snow    
Averages and records for this station are not official NWS values.
T = Trace of Precipitation, MM = Missing Value Source: NWS Daily Summary

Daily Weather History Graph

Daily Weather History Graph

Search for Another Location

Airport or City:

Trip Planner

Search our weather history database for the weather conditions in past years. The results will help you decide how hot, cold, wet, or windy it might be!

Date:

Astronomy

Apr. 13, 2013 Rise Set
Actual Time 6:40 AM MDT 7:59 PM MDT
Civil Twilight 6:11 AM MDT 8:28 PM MDT
Nautical Twilight 5:36 AM MDT 9:04 PM MDT
Astronomical Twilight 4:58 AM MDT 9:41 PM MDT
Moon 8:30 AM MDT (4/13) 11:30 PM MDT (4/13)
Length of Visible Light 14h 17m
Length of Day
13h 19m
Waxing Crescent, 11% of the Moon is Illuminated
Apr 13
Waxing Crescent
Apr 18
First Quarter
Apr 25
Full
May 2
Last Quarter
May 9
New

Hourly Weather History & Observations

Time (MDT) Temp. Windchill Dew Point Humidity Pressure Visibility Wind Dir Wind Speed Gust Speed Precip Events Conditions
12:15 AM 28.4 °F 23.3 °F 19.4 °F 69% 29.87 in 10.0 mi ENE 4.6 mph - N/A   Clear
12:35 AM 28.4 °F 24.6 °F 19.4 °F 69% 29.87 in 10.0 mi NNE 3.5 mph - N/A   Clear
12:55 AM 28.4 °F - 21.2 °F 74% 29.87 in 10.0 mi Calm Calm - N/A   Clear
1:15 AM 28.4 °F - 21.2 °F 74% 29.85 in 10.0 mi Calm Calm - N/A   Clear
1:35 AM 28.4 °F - 21.2 °F 74% 29.84 in 10.0 mi Calm Calm - N/A   Clear
1:55 AM 28.4 °F 24.6 °F 21.2 °F 74% 29.83 in 10.0 mi WSW 3.5 mph - N/A   Clear
2:15 AM 26.6 °F - 21.2 °F 80% 29.82 in 10.0 mi Calm Calm - N/A   Clear
2:35 AM 28.4 °F - 21.2 °F 74% 29.82 in 10.0 mi Calm Calm - N/A   Scattered Clouds
2:55 AM 28.4 °F - 21.2 °F 74% 29.80 in 10.0 mi Calm Calm - N/A   Scattered Clouds
3:15 AM 28.4 °F - 23.0 °F 80% 29.79 in 10.0 mi Calm Calm - N/A   Mostly Cloudy
3:35 AM 28.4 °F - 23.0 °F 80% 29.77 in 10.0 mi Calm Calm - N/A   Mostly Cloudy
3:55 AM 28.4 °F - 23.0 °F 80% 29.77 in 10.0 mi Calm Calm - N/A   Scattered Clouds
4:15 AM 26.6 °F - 23.0 °F 86% 29.76 in 10.0 mi Calm Calm - N/A   Scattered Clouds
4:35 AM 28.4 °F 24.6 °F 23.0 °F 80% 29.76 in 10.0 mi WNW 3.5 mph - N/A   Overcast
4:55 AM 30.2 °F 24.3 °F 23.0 °F 75% 29.76 in 10.0 mi WNW 5.8 mph - N/A   Overcast
5:15 AM 30.2 °F 26.7 °F 23.0 °F 75% 29.75 in 10.0 mi WNW 3.5 mph - N/A   Overcast
5:35 AM 30.2 °F - 23.0 °F 75% 29.75 in 10.0 mi Calm Calm - N/A   Overcast
5:55 AM 30.2 °F - 23.0 °F 75% 29.74 in 10.0 mi Calm Calm - N/A   Overcast
6:15 AM 32.0 °F - 24.8 °F 75% 29.72 in 10.0 mi Calm Calm - N/A   Overcast
6:35 AM 32.0 °F 25.6 °F 26.6 °F 80% 29.71 in 10.0 mi NNE 6.9 mph - N/A   Overcast
6:55 AM 32.0 °F - 26.6 °F 80% 29.71 in 10.0 mi Calm Calm - N/A   Overcast
7:15 AM 32.0 °F 25.6 °F 28.4 °F 87% 29.69 in 10.0 mi East 6.9 mph - N/A   Mostly Cloudy
7:35 AM 32.0 °F - 28.4 °F 87% 29.69 in 10.0 mi Calm Calm - N/A   Overcast
7:55 AM 32.0 °F - 28.4 °F 87% 29.68 in 10.0 mi Calm Calm - N/A   Overcast
8:15 AM 32.0 °F - 26.6 °F 80% 29.68 in 10.0 mi Calm Calm - N/A   Overcast
8:35 AM 33.8 °F 30.8 °F 26.6 °F 75% 29.67 in 10.0 mi ENE 3.5 mph - N/A   Overcast
8:55 AM 33.8 °F 28.6 °F 26.6 °F 75% 29.66 in 10.0 mi ESE 5.8 mph - N/A   Overcast
9:15 AM 35.6 °F 29.9 °F 26.6 °F 70% 29.64 in 10.0 mi ESE 6.9 mph - N/A   Overcast
9:35 AM 37.4 °F 30.3 °F 24.8 °F 60% 29.63 in 10.0 mi SE 10.4 mph - N/A   Overcast
9:55 AM 37.4 °F 29.3 °F 24.8 °F 60% 29.62 in 10.0 mi SE 12.7 mph 16.1 mph N/A   Overcast
10:15 AM 37.4 °F 30.8 °F 23.0 °F 56% 29.61 in 10.0 mi SE 9.2 mph - N/A   Overcast
10:35 AM 37.4 °F 30.8 °F 23.0 °F 56% 29.61 in 10.0 mi SE 9.2 mph - N/A   Overcast
10:55 AM 37.4 °F 32.1 °F 26.6 °F 65% 29.59 in 10.0 mi SE 6.9 mph - N/A   Overcast
11:15 AM 39.2 °F 35.9 °F 28.4 °F 65% 29.58 in 10.0 mi SE 4.6 mph - N/A   Overcast
11:35 AM 39.2 °F - 30.2 °F 70% 29.58 in 10.0 mi Calm Calm - N/A   Overcast
11:55 AM 41.0 °F 36.4 °F 28.4 °F 61% 29.56 in 10.0 mi SW 6.9 mph - N/A   Overcast
12:15 PM 41.0 °F 35.8 °F 28.4 °F 61% 29.55 in 10.0 mi SW 8.1 mph - N/A   Overcast
12:35 PM 41.0 °F 33.5 °F 26.6 °F 57% 29.54 in 10.0 mi WSW 13.8 mph 25.3 mph N/A   Overcast
12:55 PM 41.0 °F 34.3 °F 28.4 °F 61% 29.54 in 10.0 mi WSW 11.5 mph 17.3 mph N/A   Overcast
1:15 PM 41.0 °F 31.6 °F 28.4 °F 61% 29.53 in 10.0 mi WSW 20.7 mph 27.6 mph N/A   Overcast
1:35 PM 42.8 °F 33.5 °F 28.4 °F 57% 29.52 in 10.0 mi SW 23.0 mph 28.8 mph N/A   Overcast
1:55 PM 41.0 °F 30.7 °F 28.4 °F 61% 29.51 in 10.0 mi SW 25.3 mph 32.2 mph N/A   Mostly Cloudy
2:15 PM 42.8 °F 34.3 °F 28.4 °F 57% 29.51 in 10.0 mi SW 19.6 mph 29.9 mph N/A   Mostly Cloudy
2:35 PM 42.8 °F 34.5 °F 28.4 °F 57% 29.50 in 10.0 mi SW 18.4 mph 25.3 mph N/A   Scattered Clouds
2:55 PM 41.0 °F 32.2 °F 28.4 °F 61% 29.50 in 10.0 mi WSW 18.4 mph 25.3 mph N/A   Overcast
3:15 PM 39.2 °F 28.5 °F 32.0 °F 75% 29.50 in 10.0 mi West 24.2 mph 31.1 mph N/A   Overcast
3:35 PM 35.6 °F 24.0 °F 32.0 °F 87% 29.53 in 7.0 mi WNW 23.0 mph 29.9 mph N/A Rain Light Rain
3:55 PM 33.8 °F 20.8 °F 30.2 °F 87% 29.53 in 3.0 mi WNW 26.5 mph 33.4 mph N/A Snow Light Snow
4:15 PM 33.8 °F 20.8 °F 28.4 °F 81% 29.54 in 10.0 mi WNW 26.5 mph 33.4 mph N/A   Overcast
4:35 PM 32.0 °F 18.6 °F 28.4 °F 87% 29.55 in 5.0 mi WNW 25.3 mph 35.7 mph N/A Snow Light Snow
4:55 PM 32.0 °F 20.8 °F 28.4 °F 87% 29.54 in 7.0 mi WNW 17.3 mph 29.9 mph N/A Snow Light Snow
5:15 PM 33.8 °F 25.3 °F 28.4 °F 81% 29.52 in 4.0 mi NW 11.5 mph - N/A Snow Light Snow
5:35 PM 33.8 °F 23.5 °F 26.6 °F 75% 29.54 in 10.0 mi West 16.1 mph - N/A   Overcast
6:15 PM 35.6 °F 25.5 °F 21.2 °F 56% 29.53 in 10.0 mi West 17.3 mph 29.9 mph N/A   Mostly Cloudy
6:35 PM 35.6 °F 23.7 °F 17.6 °F 48% 29.52 in 10.0 mi West 24.2 mph 39.1 mph N/A   Scattered Clouds
6:55 PM 35.6 °F 23.2 °F 14.0 °F 41% 29.51 in 10.0 mi West 26.5 mph 40.3 mph N/A   Clear
7:15 PM 33.8 °F 21.9 °F 12.2 °F 41% 29.51 in 10.0 mi West 21.9 mph 33.4 mph N/A   Clear
7:35 PM 33.8 °F 20.5 °F 10.4 °F 38% 29.52 in 10.0 mi West 27.6 mph 36.8 mph N/A   Clear
7:55 PM 32.0 °F 18.6 °F 12.2 °F 44% 29.53 in 10.0 mi West 25.3 mph 33.4 mph N/A   Clear
8:15 PM 32.0 °F 20.1 °F 12.2 °F 44% 29.54 in 10.0 mi West 19.6 mph 31.1 mph N/A   Clear
8:35 PM 30.2 °F 18.1 °F 14.0 °F 51% 29.56 in 10.0 mi WNW 18.4 mph 29.9 mph N/A   Clear
8:55 PM 28.4 °F 14.7 °F 17.6 °F 64% 29.57 in 10.0 mi WNW 21.9 mph 25.3 mph N/A   Clear
9:15 PM 28.4 °F 14.4 °F 19.4 °F 69% 29.58 in 10.0 mi West 23.0 mph 28.8 mph N/A   Clear
9:35 PM 28.4 °F 15.8 °F 14.0 °F 55% 29.58 in 10.0 mi WNW 18.4 mph 28.8 mph N/A   Clear
9:55 PM 28.4 °F 18.0 °F 14.0 °F 55% 29.59 in 10.0 mi WNW 12.7 mph 19.6 mph N/A   Clear
10:15 PM 26.6 °F 16.2 °F 14.0 °F 59% 29.58 in 10.0 mi West 11.5 mph - N/A   Clear
10:35 PM 26.6 °F 20.0 °F 14.0 °F 59% 29.59 in 10.0 mi North 5.8 mph 10.4 mph N/A   Clear
10:55 PM 26.6 °F 18.2 °F 12.2 °F 55% 29.59 in 10.0 mi NW 8.1 mph 27.6 mph N/A   Clear
11:15 PM 26.6 °F 14.3 °F 15.8 °F 64% 29.60 in 10.0 mi West 16.1 mph 27.6 mph N/A   Mostly Cloudy
11:35 PM 24.8 °F 15.3 °F 17.6 °F 74% 29.61 in 10.0 mi West 9.2 mph 18.4 mph N/A   Overcast
11:55 PM 24.8 °F 13.4 °F 19.4 °F 80% 29.61 in 10.0 mi West 12.7 mph - N/A   Overcast